Wind_Gust
9 8 7 5 4 4 7 14 11 13 7 6 5 5 17 3 7 9 11 12 14 5 6 7 6 9 9 11 13 15 10 11 9 23 16 15 9 17 15 19 18 18 20 19 16 16 15 18 20 22 22 20 19 18 17 19 18 17 18 18 18 17 18 18 19 19 19 20 20 20 20 20 20 20 19 20 19 19 18 19 19 19 18 17 18 17 17 16 17 18 18 18 18 17 19 18 17
6 9 3 3 3 4 5 4 11 4 10 4 11 4 15 6 6 7 8 6 6 7 3 15 19 19 19 21 19 12 12 14 6 7 11 9 15 16 17 21 21 22 19 18 17 16 14 17 21 22 22 21 19 18 19 19 18 17 18 19 18 18 17 18 18 19 19 18 19 19 20 20 20 20 19 19 18 17 17 17 17 17 17 16 16 16 15 15 15 16 16 17 17 17 17 17 16
6 10 8 8 7 9 5 7 15 6 9 11 13 16 7 10 12 4 3 5 8 11 4 8 11 10 8 7 11 6 5 10 14 9 15 15 24 14 15 17 17 19 21 18 17 16 13 16 22 22 21 20 19 18 18 19 18 17 18 19 18 17 17 18 18 18 18 18 19 19 19 19 19 20 20 19 17 16 16 15 16 16 16 15 14 14 14 13 13 14 14 16 16 16 16 15 15
2 4 3 6 7 10 7 9 7 16 13 14 10 12 13 10 19 7 6 8 13 5 4 9 12 8 7 15 10 11 12 8 6 11 25 22 13 19 18 18 17 17 16 18 18 16 12 19 23 22 21 21 19 18 18 18 18 17 18 18 18 17 17 16 17 17 18 18 19 19 19 19 20 20 19 18 17 16 15 14 14 15 15 15 14 13 13 12 12 13 13 14 14 14 14 15 14
6 5 4 7 11 8 9 11 10 11 16 14 14 12 12 13 17 4 6 11 8 4 5 5 12 10 7 11 4 8 10 10 11 6 18 9 13 16 17 17 17 18 17 16 16 16 13 22 22 21 20 21 19 19 18 18 18 18 17 18 18 16 16 16 16 17 17 18 18 18 19 18 19 19 19 19 17 16 15 14 13 13 14 14 13 12 11 10 11 11 12 13 14 13 13 14 14
5 5 6 4 8 8 11 8 6 10 12 15 11 15 13 12 12 9 4 5 3 3 2 5 9 10 10 8 7 10 12 15 10 7 13 16 17 17 18 17 17 17 16 15 15 14 14 21 22 21 20 20 19 19 18 17 18 18 17 17 17 16 16 15 15 16 17 17 17 18 18 18 19 19 18 17 16 15 14 13 12 12 12 12 12 12 12 12 12 11 11 13 14 13 14 13 13
4 9 13 8 5 10 12 9 11 10 16 10 13 17 12 10 8 9 6 3 4 7 6 5 14 17 20 12 13 8 6 7 13 13 8 17 16 16 15 16 17 16 15 15 15 13 16 20 19 20 20 20 19 18 18 18 18 18 17 17 17 16 16 14 12 14 16 16 17 17 17 17 17 18 18 16 15 14 13 12 12 11 11 11 12 13 12 11 11 11 11 13 13 13 13 13 12
3 6 7 7 10 8 6 5 8 12 13 14 9 15 6 8 10 5 3 2 7 6 7 13 7 11 8 5 11 6 10 6 12 14 15 18 15 14 13 17 17 17 17 15 13 13 20 20 19 18 20 20 19 18 17 18 18 17 17 16 15 15 16 15 13 11 12 15 16 17 17 17 17 17 17 16 15 14 13 12 12 11 11 12 13 12 12 11 11 11 11 12 12 13 13 13 12
7 12 3 11 7 11 6 9 13 7 12 7 13 15 6 9 8 5 3 4 2 4 10 9 7 11 10 14 9 6 7 10 15 19 18 16 15 14 14 14 20 18 16 15 14 13 14 18 17 17 18 19 18 17 17 17 17 17 16 16 14 14 14 14 14 12 11 11 14 16 16 16 17 16 15 14 14 13 13 13 12 12 12 11 12 12 12 12 11 10 11 11 12 13 13 12 12
5 5 7 12 9 8 5 12 4 12 16 9 11 19 9 10 10 6 6 5 8 9 6 5 5 14 18 16 10 4 9 14 19 16 14 14 13 12 13 11 12 19 15 15 14 14 13 20 16 16 15 18 17 17 16 15 16 16 16 15 12 13 13 13 10 12 11 12 11 14 15 15 15 14 15 14 13 13 13 12 12 11 11 11 11 11 11 11 11 10 10 11 12 12 12 12 12
8 11 6 10 5 8 14 12 10 12 7 9 13 16 10 10 11 11 9 8 6 12 6 16 15 20 15 11 7 6 11 15 19 18 13 12 13 13 15 12 13 16 19 15 14 14 14 14 20 18 16 16 16 16 16 16 14 12 13 11 11 12 12 10 12 12 12 13 14 15 15 14 14 13 14 14 13 12 12 12 12 11 10 12 11 11 11 11 11 10 10 10 10 10 10 11 10
6 6 5 7 10 14 10 10 10 14 10 7 19 13 7 14 8 9 8 12 10 6 12 10 22 22 18 15 10 10 9 10 12 14 14 12 15 14 14 17 13 12 16 17 14 13 13 14 13 18 18 16 16 17 16 16 14 13 13 13 13 13 12 11 12 13 13 12 13 13 13 13 13 14 13 14 12 11 11 12 11 11 10 10 10 9 9 10 10 10 9 9 9 9 9 9 9
9 4 9 9 10 4 5 4 11 5 10 13 15 14 6 9 11 16 15 16 13 12 10 7 24 9 15 13 14 10 12 8 10 15 14 14 16 15 14 17 14 15 15 15 16 14 12 12 12 12 15 19 16 15 16 16 13 13 13 13 13 13 12 12 13 13 13 13 13 13 13 12 12 13 12 12 12 13 11 11 11 11 10 9 8 8 9 9 10 10 9 8 8 7 8 8 10
12 13 13 12 3 5 7 8 2 4 12 14 6 8 6 9 12 17 18 15 18 21 9 18 21 16 18 18 14 14 14 10 14 13 17 16 15 15 15 16 14 15 13 14 15 14 12 12 11 11 12 11 10 15 16 17 14 14 13 12 13 11 12 11 11 10 11 12 12 12 12 12 12 12 12 11 12 11 10 10 10 10 9 8 7 7 8 9 9 9 9 9 8 7 7 9 11
7 6 9 7 6 3 8 13 9 8 17 7 6 8 11 9 8 9 22 19 18 6 18 11 17 21 24 23 19 22 18 15 14 16 18 16 15 14 16 14 13 13 14 14 13 14 13 12 10 10 10 8 9 9 8 14 16 14 14 13 13 11 11 12 12 11 12 13 12 12 11 11 11 11 11 11 10 9 10 9 9 8 8 8 6 7 7 7 8 8 9 9 9 9 9 11 10
9 10 7 8 9 7 13 9 5 4 22 2 6 12 5 8 4 15 13 22 15 9 17 20 8 11 17 21 18 26 20 18 17 19 20 18 15 15 16 14 13 12 12 12 12 11 12 12 10 9 9 8 7 7 8 7 14 15 14 13 13 12 12 12 12 11 10 11 12 10 8 7 7 6 10 8 9 8 7 6 7 7 7 7 6 5 6 6 7 8 8 8 9 9 11 12 10
4 10 6 7 10 9 10 10 10 13 10 7 9 15 12 12 7 8 6 17 29 11 7 6 9 5 26 10 20 25 21 19 19 21 20 20 20 19 17 15 15 13 11 10 10 12 12 12 11 10 8 8 8 8 7 6 10 14 11 13 14 12 12 13 12 11 8 9 9 9 8 6 6 6 6 4 6 4 6 6 7 6 6 5 5 5 5 6 7 7 8 9 9 10 12 12 11
6 10 10 8 13 8 10 13 14 4 8 10 16 7 8 8 8 12 19 15 17 14 12 10 16 15 14 19 22 24 22 22 21 25 23 21 18 21 19 17 17 16 13 12 11 12 13 12 12 10 9 8 9 9 7 6 6 10 5 4 6 9 11 10 8 5 8 4 8 7 5 5 5 5 4 5 5 2 3 6 5 6 5 5 3 4 4 5 6 6 8 9 9 10 12 9 8
9 8 9 19 11 15 8 8 9 8 11 10 14 8 5 9 11 13 18 10 18 19 13 17 21 21 20 20 22 23 22 21 23 23 24 21 19 17 15 14 13 13 12 12 12 13 11 12 11 11 9 9 10 8 7 5 8 7 5 6 6 8 8 8 5 6 5 5 7 6 5 5 5 4 2 4 4 5 2 4 6 5 5 5 4 3 3 5 6 6 7 8 10 11 9 8 6
10 12 13 18 8 8 8 8 10 7 10 16 12 14 7 9 5 5 12 16 11 23 28 22 26 24 24 21 22 22 21 20 19 23 23 23 20 17 17 16 15 13 13 13 12 11 12 12 11 11 11 9 10 8 7 8 8 7 7 7 7 6 7 6 6 5 5 5 6 5 5 4 4 3 7 8 8 5 5 6 6 6 5 4 4 5 8 7 9 9 9 9 8 7 7 7 6
8 10 17 10 9 11 13 8 13 15 5 8 9 10 7 6 3 8 16 20 6 6 23 31 29 27 27 24 24 22 22 20 21 21 23 20 17 13 14 14 15 14 13 12 11 12 11 10 11 10 9 8 10 9 8 8 8 7 7 7 7 6 6 6 6 4 4 4 5 5 5 4 4 3 5 5 5 5 4 4 5 5 5 5 6 5 5 5 6 7 7 7 7 7 7 7 6
9 13 5 7 5 8 12 10 12 11 6 5 5 8 7 4 10 12 21 26 25 30 23 23 33 33 34 30 25 24 22 21 23 22 23 20 20 16 13 11 9 10 14 14 12 12 9 9 9 9 10 9 8 8 6 11 10 6 6 7 7 6 6 6 5 4 4 4 3 4 4 5 4 4 3 5 4 3 4 4 4 4 4 4 4 5 5 5 5 5 6 6 6 6 7 7 5
12 8 5 9 11 15 7 8 9 3 6 6 8 6 4 5 6 14 9 7 10 11 9 12 27 32 25 28 31 26 23 22 21 22 19 19 18 16 15 15 19 16 14 11 12 9 9 8 8 10 12 11 9 9 8 8 8 7 6 6 7 5 6 6 5 5 5 6 5 4 5 4 4 4 5 5 4 2 4 5 5 4 5 5 4 4 6 5 5 5 5 5 5 6 7 6 6
10 16 2 8 8 14 14 15 12 8 7 14 7 6 9 10 13 7 6 7 10 12 18 20 21 23 25 27 21 23 22 20 19 19 18 19 17 18 18 19 14 10 13 14 12 9 10 9 10 10 10 10 9 10 8 7 8 8 6 10 8 8 7 7 7 7 6 7 5 4 4 4 4 4 4 4 6 3 5 4 4 4 5 5 4 4 5 6 7 6 6 5 6 5 6 6 6
7 11 6 10 9 11 14 14 13 12 11 11 8 8 6 8 11 6 6 6 13 18 21 24 24 22 19 20 21 20 19 16 16 14 10 10 12 13 12 12 12 13 15 13 12 10 9 9 9 11 10 10 9 11 9 8 7 7 7 6 8 10 7 8 8 5 5 3 3 3 4 5 4 4 4 5 3 4 5 5 6 6 4 5 4 6 6 7 7 7 7 6 5 6 6 8 6
11 14 11 9 9 10 12 11 14 13 9 8 7 5 4 14 16 14 8 9 14 20 21 24 24 23 21 19 19 18 19 20 16 15 14 13 15 16 15 15 14 14 15 14 14 13 10 9 10 10 10 11 11 10 9 9 8 7 7 7 7 7 7 6 3 4 4 4 4 4 3 4 5 5 5 4 4 5 5 5 5 6 7 6 5 7 6 6 8 8 7 7 7 7 7 8 6
6 6 8 12 14 11 9 11 14 8 6 7 10 7 11 5 9 7 10 14 19 21 23 20 23 23 20 20 19 19 20 19 16 13 14 13 15 16 16 13 16 13 15 17 14 14 12 10 9 9 9 10 10 9 9 8 8 8 8 7 7 7 4 4 4 4 5 4 3 2 3 2 3 4 4 4 4 5 5 5 6 5 6 6 6 7 6 7 7 8 8 8 9 8 8 7 7
6 6 5 8 12 11 12 9 14 6 10 14 18 11 4 8 5 15 18 17 21 27 26 22 19 18 19 18 17 19 20 17 21 16 17 18 18 17 18 20 17 15 15 15 13 13 12 10 10 8 9 10 10 8 8 8 9 8 6 5 5 5 5 5 5 5 6 5 3 4 3 3 3 4 3 4 5 6 7 7 7 6 8 6 6 7 7 7 8 10 8 8 9 7 8 7 6
5 4 8 11 10 12 7 13 13 10 9 9 12 11 5 9 9 13 17 18 21 20 26 24 18 17 16 17 16 18 21 16 18 18 18 15 14 15 17 14 16 16 11 14 15 14 12 11 11 10 8 8 8 9 9 8 6 6 7 6 5 5 5 4 5 5 6 5 4 4 5 4 4 5 5 5 6 6 8 9 9 8 7 6 6 6 8 7 9 11 11 9 9 8 9 9 6
5 2 3 9 11 12 12 5 7 6 10 16 12 8 10 6 10 16 17 22 21 21 21 20 16 16 16 19 14 11 10 12 13 12 13 13 13 14 15 13 14 14 15 11 12 13 12 9 8 8 9 9 8 8 7 6 6 6 6 5 4 5 4 5 4 4 3 4 5 6 6 6 6 6 5 5 5 6 8 9 11 12 8 7 5 8 9 10 10 10 12 11 11 8 10 9 7
6 7 4 6 3 11 8 8 6 11 11 13 6 9 10 7 13 16 17 22 26 24 22 21 16 16 18 16 16 15 15 13 12 12 10 10 10 11 13 13 12 11 13 13 16 13 11 9 9 8 9 8 8 7 6 6 5 7 7 5 4 4 2 3 2 3 5 5 5 7 7 7 6 6 6 5 5 5 7 9 9 10 9 7 8 6 8 8 9 12 10 11 11 10 10 9 8
4 8 11 9 6 12 14 6 10 16 10 9 13 6 11 11 18 19 18 19 20 27 23 18 16 18 17 16 17 14 12 8 11 11 11 11 10 11 12 13 12 11 12 12 11 11 11 8 8 7 6 7 6 6 4 6 7 6 6 6 4 3 2 3 4 5 6 6 7 7 6 7 7 7 6 7 8 7 8 9 10 8 8 8 8 8 7 9 8 9 10 10 10 12 10 11 8
9 6 5 4 3 9 11 3 7 10 11 4 8 12 8 4 13 17 17 21 20 27 22 17 17 17 19 15 13 13 13 10 11 11 11 12 11 10 11 11 12 12 12 12 12 11 11 10 10 8 8 7 6 6 6 4 7 6 6 5 5 3 2 4 5 5 6 7 8 7 6 7 7 7 7 7 8 8 8 9 10 9 8 10 11 10 10 8 9 10 9 10 9 12 9 10 7
7 5 9 7 6 6 6 15 5 5 5 7 7 17 10 15 19 18 19 18 20 20 23 19 16 17 16 14 14 15 14 13 12 11 11 10 11 11 9 11 11 11 11 12 11 14 12 11 9 8 6 6 5 6 6 6 6 7 6 5 4 4 4 5 5 6 8 9 7 8 5 6 6 6 6 6 7 8 9 11 11 11 9 9 9 9 12 9 8 8 9 8 11 11 10 11 11
11 6 5 6 3 4 7 10 7 6 7 10 6 11 6 18 19 20 23 17 16 21 23 22 19 16 15 14 16 15 14 12 11 11 11 10 10 8 9 10 10 10 10 9 9 8 8 8 7 6 8 7 6 7 7 8 8 7 6 4 3 3 4 5 7 7 9 7 8 7 7 7 6 6 6 6 8 9 9 10 10 9 8 9 9 8 11 10 9 8 9 9 9 12 14 11 12
10 10 10 6 4 6 6 9 9 5 3 10 10 12 11 13 19 19 17 23 21 20 18 17 15 13 14 14 15 15 14 12 11 11 10 9 9 9 9 8 8 8 8 11 10 9 9 8 8 7 8 8 7 7 8 7 7 6 4 5 5 5 7 8 9 10 8 8 8 7 7 7 6 7 7 8 9 9 9 8 8 6 7 8 10 12 12 12 12 11 9 8 8 9 10 10 10
6 5 6 3 5 8 8 6 8 8 4 6 9 9 16 18 22 20 25 18 14 18 20 23 16 17 17 17 16 16 14 12 10 11 10 10 10 10 8 8 8 7 6 10 11 10 9 10 10 8 8 8 8 8 6 7 5 4 4 4 6 7 7 7 8 9 7 8 6 7 7 8 6 6 6 7 8 9 9 7 7 8 9 10 11 11 11 12 11 11 10 10 11 11 11 10 11
7 5 3 6 2 7 7 5 7 9 6 5 6 11 15 21 19 20 21 22 17 18 20 22 22 17 15 17 17 15 13 12 12 11 10 10 11 9 8 7 8 11 9 9 10 9 9 9 10 10 9 8 8 8 7 6 5 7 7 7 7 7 6 7 9 7 8 7 6 7 7 5 5 6 6 7 7 7 7 7 9 11 11 11 12 11 11 11 11 11 10 12 10 13 12 11 11
4 7 5 3 10 8 11 6 7 4 5 12 8 12 14 17 19 18 25 28 29 33 34 35 25 20 16 16 16 14 15 15 12 11 11 11 11 9 8 7 7 8 11 10 7 7 6 8 8 8 9 9 7 8 8 5 5 6 7 7 8 6 6 7 7 6 5 5 6 6 7 6 6 7 8 8 8 7 8 9 9 9 11 11 12 13 11 11 11 11 10 13 13 10 13 10 12
8 5 5 13 8 5 10 5 4 9 7 6 5 9 7 9 13 21 23 27 25 21 18 15 11 19 21 20 14 18 17 16 15 13 12 12 11 9 8 8 7 9 10 9 8 8 7 7 4 7 8 7 9 9 8 7 6 6 4 7 8 5 3 2 4 4 4 3 6 4 6 6 6 7 5 6 6 7 7 9 8 7 10 10 12 13 12 13 11 10 11 12 12 14 12 11 13
4 8 8 10 5 5 9 9 11 7 6 8 12 12 7 8 14 15 13 21 14 15 20 17 17 22 23 18 16 12 13 13 16 14 12 11 12 9 8 8 8 10 9 7 7 7 5 5 5 5 8 8 8 7 7 6 6 6 4 5 6 4 4 6 4 4 5 5 7 8 9 3 4 6 7 5 5 7 6 7 7 7 8 9 10 12 12 12 12 11 12 13 12 15 16 15 12
8 8 15 12 5 6 3 6 10 15 14 5 10 8 12 10 21 27 15 16 16 18 19 17 16 17 18 14 14 12 12 10 11 14 14 12 12 12 9 8 9 9 9 6 5 6 7 7 5 6 6 7 8 7 7 7 6 7 6 7 7 6 6 8 9 6 10 10 10 8 9 7 5 6 7 8 8 7 9 8 7 7 8 9 8 10 10 11 12 12 11 13 14 14 17 17 18
8 18 13 8 7 6 2 5 4 6 9 8 5 15 13 8 13 15 16 21 18 16 19 21 20 20 20 15 16 15 16 15 12 11 13 14 14 14 10 9 9 10 7 6 7 8 8 7 8 8 8 8 8 7 5 9 8 7 8 8 7 6 4 5 3 4 6 9 8 10 10 11 9 8 10 9 9 9 8 8 8 8 9 9 10 10 11 12 13 14 12 13 15 15 17 17 19
17 6 12 11 8 7 7 6 7 14 6 12 5 12 13 9 19 13 19 23 20 20 18 22 24 20 20 21 16 14 16 15 17 16 15 12 13 12 13 11 9 8 6 8 10 9 8 9 9 10 13 13 10 9 10 7 10 7 9 8 9 10 9 7 9 10 8 7 10 10 10 11 11 11 11 11 11 11 12 11 9 9 10 10 12 11 12 12 13 13 13 13 15 18 17 17 20
16 5 15 13 15 13 10 9 11 8 3 19 10 4 10 12 14 5 16 22 21 24 22 22 22 23 21 18 18 15 14 14 14 16 14 14 13 11 12 14 11 10 8 9 8 8 7 10 12 14 17 14 12 12 13 11 11 10 9 9 10 8 7 7 7 6 9 9 9 11 13 12 13 13 13 13 13 13 14 14 13 13 14 14 13 13 12 13 14 15 14 13 13 15 19 19 19
8 7 6 7 5 4 6 9 7 5 6 16 12 8 15 11 8 15 13 23 28 25 25 23 24 26 27 22 22 17 14 13 13 13 15 15 15 12 11 12 11 9 9 8 8 9 8 10 16 17 16 14 13 14 14 13 11 11 12 10 10 9 9 9 8 10 10 8 9 10 12 14 14 15 14 13 13 14 13 13 14 14 15 14 14 13 14 14 13 15 15 15 14 15 15 17 19
6 9 9 6 9 5 4 8 8 6 9 19 11 10 15 16 14 22 29 34 30 23 17 15 16 19 21 17 19 19 17 16 15 16 16 16 16 15 14 14 12 9 10 8 11 11 11 14 15 16 13 13 13 13 13 13 11 11 11 9 10 10 10 10 11 11 11 11 12 12 13 13 14 15 14 14 10 13 14 14 15 14 14 14 14 13 14 14 15 15 16 15 15 17 17 16 17
12 10 10 5 11 9 7 6 5 14 19 15 10 14 13 19 9 13 14 6 24 29 25 25 24 24 21 19 19 19 15 17 17 17 17 18 20 16 15 15 15 13 15 14 10 11 14 13 15 16 13 12 11 12 13 13 12 10 9 9 11 10 8 9 9 9 10 10 11 13 12 13 15 12 12 13 14 15 15 14 13 12 13 13 14 13 15 15 15 14 14 14 14 15 16 17 16
10 11 12 18 13 12 17 10 15 16 20 7 2 9 8 16 16 13 22 11 20 23 32 37 31 23 23 19 20 19 15 20 17 17 19 18 18 19 17 15 15 14 16 15 14 11 11 13 15 17 13 11 11 10 12 10 11 11 10 10 9 8 9 9 8 8 10 13 14 14 14 15 13 15 15 15 15 15 15 14 15 15 14 13 14 14 14 14 15 14 12 12 13 13 14 14 16
14 19 17 18 16 16 17 12 11 9 14 7 5 7 11 9 13 5 19 11 17 16 10 9 15 19 20 20 20 18 16 21 18 17 20 16 20 17 18 16 15 16 16 16 14 12 9 11 11 15 12 9 9 10 11 13 12 10 10 10 9 8 9 8 8 10 10 12 11 12 12 13 14 13 14 15 15 16 14 13 13 13 13 13 14 14 14 14 14 14 13 14 14 14 13 14 16
20 9 20 16 15 21 18 16 20 15 16 6 8 14 15 7 9 5 7 7 9 14 14 13 16 17 14 17 18 17 16 20 18 17 20 16 21 16 17 18 14 15 16 14 13 13 13 11 11 13 12 10 10 11 11 13 11 11 10 9 9 8 8 9 9 9 9 9 8 9 10 10 12 12 13 14 14 14 13 13 13 14 14 14 14 15 14 13 13 13 14 13 13 13 14 15 14
10 13 14 12 26 12 7 14 12 11 10 7 9 11 3 9 7 6 6 12 19 19 19 23 20 16 16 18 23 18 16 21 17 16 20 16 18 19 15 16 16 16 13 11 12 12 12 11 11 12 12 10 11 12 11 11 10 11 11 10 9 8 8 9 10 10 8 7 8 10 11 10 11 12 10 12 12 13 15 15 14 15 15 15 15 15 15 16 16 15 13 12 14 12 14 14 14
15 18 27 21 9 10 8 3 3 5 10 9 6 8 8 4 7 11 13 19 19 22 24 22 17 16 16 16 20 17 17 19 18 18 20 19 14 19 16 15 14 16 13 12 11 10 11 11 12 12 11 11 12 10 9 9 11 12 11 11 11 12 13 12 12 10 10 9 8 9 10 11 12 12 11 12 13 13 15 15 15 15 16 16 15 16 16 16 17 15 14 13 14 12 12 12 13
18 22 15 6 6 10 13 14 6 8 13 13 4 8 7 6 13 12 18 22 20 25 23 21 17 17 18 17 13 20 18 18 14 19 16 19 15 20 17 13 14 13 13 11 11 10 11 12 12 12 11 12 9 10 11 11 12 12 11 12 13 13 11 11 10 10 9 10 10 11 11 12 13 14 14 13 14 16 16 17 16 16 16 16 17 16 17 17 17 16 14 12 12 12 12 12 12
20 16 13 30 19 17 9 12 9 9 12 11 8 8 8 8 8 17 23 23 25 26 22 20 18 18 17 19 17 21 17 23 18 19 17 19 16 15 16 14 13 11 11 10 10 12 12 10 11 11 11 10 10 10 10 12 13 12 11 12 12 11 10 10 10 10 10 11 12 12 12 13 13 14 15 16 16 16 16 16 16 16 17 18 17 17 17 18 18 17 15 14 12 12 11 10 10
4 10 23 9 13 10 13 23 11 17 7 8 8 7 15 13 11 18 24 22 24 27 23 25 24 20 21 21 18 22 20 20 19 19 19 18 17 16 16 13 12 14 13 11 12 13 13 11 11 10 10 10 13 12 11 13 12 11 11 11 12 11 11 12 11 11 11 12 12 12 13 13 14 15 15 15 14 15 16 16 16 17 17 17 17 17 18 18 18 16 17 16 14 13 13 12 12
11 16 18 13 13 7 14 7 9 12 19 14 14 12 17 17 12 15 19 23 28 30 29 25 23 20 20 18 19 19 20 18 18 17 21 20 18 13 14 13 12 12 13 13 13 12 10 10 11 10 11 11 12 9 10 11 11 10 12 13 13 12 12 11 11 11 11 12 12 12 12 12 14 16 16 16 17 17 17 17 17 18 17 18 18 18 18 18 18 17 17 15 13 13 13 13 11
19 21 18 14 15 11 16 16 7 9 17 16 14 17 16 16 5 16 20 20 21 22 25 22 19 20 22 19 18 20 22 18 19 15 18 23 16 13 11 13 13 15 13 12 10 10 10 12 10 11 11 9 10 10 10 10 10 10 12 12 11 10 10 10 10 11 12 13 13 13 13 13 14 14 15 16 17 16 17 18 16 18 17 17 17 16 16 17 17 17 17 16 15 15 16 16 15
Wind_Speed
5 5 4 3 1 2 2 6 1 3 1 2 1 1 5 1 2 4 7 6 4 1 3 3 3 3 2 4 8 7 2 5 4 10 6 1 2 8 8 11 11 11 11 9 8 7 7 13 16 17 16 15 15 14 13 13 13 13 13 13 13 13 13 13 14 14 15 16 16 16 15 15 15 15 15 15 15 15 15 15 14 14 14 14 13 12 10 11 14 14 14 14 14 13 15 13 13
3 5 2 1 1 2 0 0 3 1 4 1 5 1 7 1 0 2 5 2 2 0 0 4 8 9 12 14 12 5 4 4 3 1 1 2 6 5 9 12 12 12 10 9 8 7 6 11 16 16 15 15 14 14 13 14 13 13 13 13 12 12 12 13 14 14 15 15 15 15 15 14 15 15 15 15 14 14 14 14 13 13 13 12 12 12 10 9 12 12 12 13 13 13 13 13 12
3 6 4 3 3 4 1 3 3 2 5 6 5 6 3 5 5 2 2 2 4 5 3 1 4 3 2 2 5 2 2 1 5 3 3 6 10 5 9 11 11 11 12 9 7 7 6 9 16 16 15 15 14 13 13 14 13 13 13 12 12 12 12 12 13 13 13 14 14 15 14 14 15 15 15 14 14 13 13 12 12 12 11 11 10 11 10 8 10 11 11 12 12 12 12 11 11
1 3 1 3 0 3 2 3 3 8 5 6 3 4 6 6 8 4 2 5 6 2 0 3 5 3 2 8 2 2 5 3 2 6 6 7 2 8 9 9 10 9 9 9 9 7 6 12 16 16 15 14 14 14 13 13 13 13 12 11 12 11 11 11 12 12 13 14 14 14 14 14 14 14 15 14 13 12 11 11 11 11 11 11 10 10 10 8 9 10 10 10 11 10 10 11 11
3 2 2 3 5 1 2 2 3 4 7 5 6 5 7 8 7 1 2 4 1 1 2 1 3 4 3 5 0 1 4 5 6 3 3 2 5 9 9 9 10 10 9 9 8 8 7 16 15 15 14 15 14 14 13 13 13 13 12 11 11 11 11 11 11 12 13 13 13 14 14 13 14 15 15 14 13 12 12 11 11 11 11 11 10 9 9 8 9 8 9 10 10 9 9 11 11
3 2 3 1 0 2 5 1 0 5 7 6 4 4 8 6 3 3 1 2 1 2 1 3 3 1 4 3 1 2 4 4 3 3 5 3 9 9 9 9 9 9 9 8 8 7 7 16 15 15 14 15 14 14 13 13 14 12 11 11 11 11 10 10 10 11 12 13 13 13 14 14 14 14 14 13 12 12 11 10 9 9 9 9 9 9 9 8 7 8 8 9 9 9 10 10 10
0 4 5 3 2 4 5 4 7 6 8 5 4 5 8 1 3 1 2 1 1 4 2 2 6 5 4 1 2 2 3 3 4 2 2 7 9 10 9 9 9 10 9 8 7 7 9 14 13 14 15 15 14 14 13 13 13 13 12 10 10 10 10 10 8 10 11 11 12 13 13 13 13 13 13 12 12 11 10 9 9 8 8 8 9 10 9 8 8 8 8 9 9 9 10 10 10
1 2 1 2 1 1 1 2 5 5 5 7 3 8 2 3 0 2 2 1 1 0 2 5 2 5 1 2 2 1 5 4 5 9 9 9 10 10 9 9 9 10 9 8 7 7 12 13 13 13 15 15 14 14 14 13 13 12 12 11 9 10 11 10 9 8 9 10 12 12 12 12 13 12 12 12 12 10 9 9 8 9 9 10 10 10 9 9 8 7 8 8 9 10 10 10 9
3 5 0 4 2 2 1 5 5 3 5 2 7 7 3 1 2 1 1 1 1 2 6 4 3 6 3 3 2 3 2 3 8 11 10 10 10 9 7 8 9 9 9 8 7 6 7 13 12 13 15 15 14 14 13 14 13 12 12 11 9 8 8 10 10 9 8 8 10 11 11 12 13 12 12 11 11 10 9 9 9 9 9 9 9 9 9 9 8 8 7 8 9 10 10 10 9
2 2 2 2 4 4 1 5 1 6 6 3 4 9 1 2 3 2 3 3 4 6 2 2 2 4 6 5 0 2 1 2 10 11 9 9 9 8 9 8 8 11 10 9 7 7 6 13 12 13 12 14 14 14 13 13 12 12 12 11 7 7 8 9 8 8 8 9 9 10 11 12 11 11 12 11 10 9 9 8 8 8 8 8 9 8 9 9 8 8 8 8 9 9 9 9 9
0 5 2 3 1 3 7 7 4 5 3 3 7 6 6 4 5 2 4 5 2 5 2 6 4 8 5 4 1 3 2 4 10 11 9 8 9 9 9 8 8 8 11 10 9 8 7 8 15 14 13 13 14 13 13 13 12 10 10 9 8 8 9 8 9 9 8 9 10 10 11 11 11 10 12 11 10 9 9 8 8 7 8 9 9 9 8 9 8 8 7 7 7 7 8 8 8
1 1 1 3 3 7 5 4 4 6 6 3 6 3 3 8 3 2 3 5 3 2 7 7 6 8 7 5 1 0 3 4 6 9 9 8 9 10 9 7 8 7 9 11 9 7 8 8 8 13 14 13 13 14 13 13 12 11 11 10 9 9 9 9 9 9 9 9 10 10 10 10 10 11 11 11 10 9 8 8 8 7 7 7 7 7 7 7 8 7 6 6 6 6 7 7 7
3 2 5 3 3 2 2 1 4 3 4 5 6 1 2 5 5 9 8 9 7 7 2 5 13 3 5 5 2 2 5 4 6 10 9 9 9 8 7 8 8 8 9 9 10 9 8 7 7 7 10 15 13 13 13 13 11 10 11 10 9 9 9 10 9 9 9 9 9 9 9 10 10 10 10 9 10 10 8 7 7 7 7 7 6 6 7 7 7 7 7 6 6 6 6 6 8
4 6 6 4 1 2 3 3 0 1 5 2 3 2 2 3 6 9 6 7 7 10 3 10 10 5 5 7 3 5 6 5 9 9 10 10 9 8 8 7 9 8 8 8 9 9 8 7 6 7 7 6 6 10 13 13 11 11 10 10 10 9 8 9 9 8 9 9 8 9 9 9 9 9 9 9 10 9 8 8 7 6 5 5 5 6 6 6 7 7 7 6 6 6 6 7 8
2 2 3 1 0 1 3 4 5 4 8 1 1 2 5 4 2 3 10 8 6 1 6 6 4 7 6 12 6 10 8 10 9 11 11 11 10 8 8 7 8 8 8 8 8 8 8 8 6 6 6 5 5 5 5 9 12 12 11 10 11 9 9 10 10 9 9 9 9 8 8 9 8 8 9 8 8 7 8 7 6 6 5 4 4 5 5 6 6 6 7 7 7 7 7 9 8
3 4 3 2 3 4 5 4 1 2 7 1 2 2 3 4 1 4 6 9 4 3 11 6 2 2 4 9 6 12 13 12 11 12 12 12 10 8 8 8 7 7 7 7 7 6 7 7 6 5 6 5 4 4 5 4 10 11 10 10 10 10 10 10 10 9 9 8 9 8 6 4 5 4 7 5 7 6 6 5 5 6 5 3 3 4 4 5 5 6 6 6 7 7 9 9 8
2 4 0 2 5 4 3 3 5 4 5 4 6 3 4 4 1 1 2 9 15 7 3 2 2 1 9 3 9 14 14 13 13 14 13 11 10 9 9 8 8 7 5 6 6 7 8 7 7 5 5 5 5 5 4 4 6 10 9 10 9 9 10 9 8 8 7 7 7 6 6 4 4 4 3 2 4 2 4 3 5 4 4 3 2 3 3 4 5 5 6 6 7 8 9 8 7
2 2 4 3 5 4 4 5 6 1 1 6 8 2 3 5 2 0 6 7 10 6 6 2 8 6 5 4 14 15 14 14 14 16 13 13 11 12 11 10 10 10 8 7 6 7 7 7 7 6 5 6 6 5 4 3 3 6 3 3 3 6 8 7 5 3 4 3 6 5 3 3 3 2 2 3 2 0 1 1 2 3 2 2 1 2 3 4 4 4 5 6 7 8 9 4 3
3 1 3 9 5 6 5 3 5 1 6 6 8 5 1 5 5 0 6 7 11 8 5 5 10 10 12 13 15 15 14 14 15 15 16 15 11 11 9 8 8 8 7 6 6 7 6 6 6 7 6 6 7 5 4 3 5 4 3 3 3 5 5 5 3 4 3 4 4 4 3 2 2 2 0 1 1 2 0 2 1 0 1 1 1 1 2 4 4 5 6 6 7 6 4 3 2
4 6 5 8 4 3 5 2 4 4 7 9 8 8 4 1 1 1 3 7 7 12 11 7 11 12 13 14 15 14 14 14 13 14 15 15 12 11 10 10 8 7 7 6 6 5 6 5 6 5 6 6 6 5 4 4 4 4 3 3 3 4 4 4 4 3 3 3 3 2 2 2 1 0 2 4 5 3 2 3 4 4 3 2 3 3 5 5 7 6 7 7 4 3 2 3 2
1 2 6 3 4 4 4 5 9 10 4 4 4 6 3 0 1 2 6 6 0 3 10 19 16 16 15 15 15 14 15 14 15 13 14 13 10 4 6 5 5 5 4 5 5 5 6 5 5 5 5 5 6 5 4 5 5 4 3 3 3 3 4 3 3 3 2 3 2 2 1 1 1 1 1 2 2 2 1 1 2 2 2 2 3 2 2 2 3 3 3 3 3 2 2 2 2
3 7 2 3 0 2 5 5 7 4 4 2 3 4 2 1 2 6 10 4 10 10 11 3 14 19 19 18 15 14 14 15 16 14 15 14 14 10 7 5 5 4 4 4 5 6 5 5 5 5 6 6 5 5 4 6 6 4 4 3 4 2 3 3 3 2 2 2 2 2 2 2 2 1 1 1 1 1 2 2 2 1 1 1 1 2 2 1 2 2 2 2 2 2 2 0 2
3 3 2 5 6 6 0 1 2 1 2 3 5 2 2 1 1 7 6 2 5 1 1 6 7 9 14 16 19 16 13 14 16 13 13 13 12 9 8 6 7 6 5 4 4 5 5 5 5 6 7 7 6 5 5 4 4 4 3 3 4 2 3 4 3 2 1 2 1 1 2 0 1 1 2 3 1 1 3 3 2 1 2 2 1 1 3 2 2 2 1 2 2 2 3 2 2
3 5 1 5 4 7 5 5 7 5 6 7 3 4 5 2 3 1 3 4 3 4 8 12 13 13 14 16 13 13 12 11 13 13 11 12 11 10 9 9 7 6 6 5 4 5 6 6 6 6 6 6 6 6 5 4 4 4 3 6 4 4 4 3 2 2 2 2 2 2 2 2 1 1 1 2 4 2 3 3 2 2 2 2 1 1 3 3 4 3 3 3 2 2 3 3 1
3 3 3 5 5 5 6 5 5 5 6 7 5 5 4 5 4 3 2 2 2 7 13 15 15 15 13 12 14 13 12 11 11 9 6 6 8 8 8 7 7 7 7 7 6 5 5 5 6 6 6 6 5 5 4 3 4 4 3 3 4 5 3 3 2 2 2 2 2 2 2 2 1 1 2 2 1 2 2 3 3 4 2 3 1 3 3 4 5 4 4 4 3 3 3 4 3
4 6 4 4 5 5 5 5 7 5 3 3 1 2 2 5 7 5 5 5 4 10 14 15 16 16 14 13 13 13 13 14 10 9 8 7 8 10 10 8 8 8 8 7 7 6 5 5 5 6 6 5 5 6 3 4 3 4 3 3 2 2 2 2 2 2 2 2 3 2 2 2 2 2 2 1 1 2 2 2 2 3 4 2 2 4 3 4 5 5 4 4 4 4 3 3 3
3 3 4 5 8 5 4 3 2 0 3 3 4 0 3 2 4 2 5 8 9 12 14 13 14 15 14 12 12 12 11 9 8 6 7 8 8 9 9 8 9 8 7 6 5 5 5 6 5 5 6 7 5 5 4 4 4 4 3 2 2 2 2 3 2 2 2 2 2 1 1 1 1 1 2 2 2 2 2 2 3 3 3 3 2 3 3 3 4 4 4 5 5 5 4 3 3
2 2 2 5 6 4 6 3 8 0 3 6 5 3 1 5 1 4 9 10 11 13 14 14 12 12 12 13 10 6 8 10 12 10 11 11 8 8 10 10 9 7 7 6 4 5 5 6 6 5 5 6 6 5 5 5 5 4 3 3 3 3 3 3 3 3 2 1 1 1 1 1 1 2 1 2 2 3 4 3 3 3 4 3 1 2 2 2 5 5 3 3 4 4 4 4 4
3 0 3 5 7 4 1 4 2 5 3 4 4 4 2 5 1 4 10 12 11 13 16 14 11 10 9 10 8 6 7 8 10 11 11 9 9 7 10 7 8 8 4 5 5 6 6 5 5 5 5 5 5 6 6 5 4 3 4 3 3 3 4 3 3 2 2 1 1 1 1 2 2 2 2 3 4 3 4 5 5 4 3 2 2 3 3 4 5 5 5 3 4 4 5 5 3
1 1 1 5 6 6 6 1 2 5 2 9 5 1 4 1 2 9 10 13 13 12 13 13 9 8 8 9 7 7 4 4 8 5 5 6 7 7 8 6 7 6 6 4 7 6 4 4 4 5 5 6 5 5 4 4 4 4 4 3 2 3 3 3 2 2 0 0 1 1 2 2 3 3 3 3 2 3 4 5 6 6 5 3 2 3 4 4 5 6 5 4 5 5 6 4 4
2 1 2 0 1 4 3 2 2 6 1 8 2 1 4 1 2 10 9 14 17 13 13 13 10 9 10 8 6 6 5 2 7 7 6 5 5 5 6 6 7 6 6 6 7 7 7 5 5 4 5 4 4 4 4 4 3 4 4 3 2 2 2 2 1 1 0 1 1 2 2 3 3 3 2 3 4 2 4 5 5 5 5 4 3 3 3 3 4 6 5 6 6 5 5 5 5
1 1 4 4 2 5 9 2 6 6 1 4 6 0 5 2 7 10 9 8 13 16 13 10 10 11 10 8 7 5 4 3 7 8 7 6 6 6 7 8 7 7 7 7 6 7 7 5 4 3 3 3 3 3 3 4 4 4 3 3 2 2 1 1 2 2 2 2 2 3 4 3 3 3 3 3 4 3 4 6 5 5 5 4 5 4 4 5 4 5 6 6 6 6 5 6 4
4 2 3 0 1 5 6 0 2 5 3 1 4 4 1 0 5 9 9 9 10 13 13 10 10 11 9 7 5 5 6 6 7 7 8 8 7 6 7 7 7 8 8 8 7 7 6 6 5 4 4 3 3 3 3 3 4 4 4 3 2 2 1 1 1 0 1 2 3 3 3 2 2 3 5 4 4 4 4 5 5 5 5 6 6 6 5 4 5 6 5 6 6 6 5 6 4
2 2 2 3 2 2 2 9 2 3 2 1 2 6 5 2 11 11 6 4 1 11 13 10 9 11 9 6 6 8 6 7 7 7 7 7 7 7 6 7 7 7 7 8 7 7 6 6 4 4 4 4 3 3 3 4 4 4 3 3 2 1 1 1 1 1 3 3 3 4 3 3 3 4 4 4 4 4 4 5 5 4 4 4 5 4 6 5 5 5 5 4 6 6 6 6 6
3 1 1 2 0 1 3 1 2 1 2 6 2 4 4 1 9 11 9 10 9 10 13 11 11 10 7 6 8 9 7 7 6 6 7 7 7 6 6 6 7 7 6 6 6 5 5 5 4 4 5 5 4 4 4 5 5 4 4 2 1 0 1 1 2 3 4 3 4 4 4 4 4 4 4 4 4 4 4 4 4 4 4 5 5 5 5 6 6 5 5 5 5 6 6 6 6
6 6 5 2 2 2 2 2 4 0 0 6 6 5 3 6 11 11 10 5 1 1 8 6 6 7 6 8 7 7 7 7 6 6 7 6 6 6 5 5 5 5 5 7 7 6 6 5 5 4 5 5 4 4 4 4 4 3 2 1 2 2 3 3 3 4 3 3 3 4 4 4 4 4 4 4 4 4 4 4 4 4 4 5 6 6 6 6 7 7 6 5 5 5 6 6 5
2 3 3 1 1 4 3 2 5 5 1 0 3 5 7 10 12 11 14 5 5 5 10 4 6 7 8 8 9 7 6 6 6 7 6 7 6 5 4 5 5 5 4 7 7 6 6 6 6 6 5 5 5 5 4 4 3 2 1 0 3 3 2 2 3 3 2 3 3 4 4 4 4 4 4 3 4 4 4 4 4 5 5 6 6 6 6 7 7 7 6 6 7 7 6 6 6
4 3 2 0 1 2 2 2 4 6 0 2 4 7 9 12 11 10 9 7 8 11 12 15 9 7 7 11 10 8 6 5 7 7 7 7 6 6 5 5 6 6 5 6 7 6 6 6 6 6 5 5 5 5 4 3 2 4 3 3 3 3 3 2 2 1 2 2 3 4 4 3 3 3 2 2 2 3 3 4 5 6 6 6 7 7 7 6 7 7 6 7 6 7 5 5 5
1 2 2 0 4 4 5 1 4 3 1 1 1 8 8 8 10 11 13 13 12 13 14 14 15 9 6 9 10 9 8 6 6 6 6 6 7 5 4 3 3 5 6 5 4 5 4 4 5 5 5 5 4 4 5 3 2 2 4 3 4 1 0 1 1 3 1 1 2 3 3 2 2 2 2 3 4 4 4 5 5 5 6 6 7 7 7 7 6 7 7 6 7 5 7 6 7
5 3 2 4 3 2 3 1 3 6 1 1 3 3 2 1 2 9 10 6 1 6 7 3 1 10 8 8 8 10 8 9 7 7 6 6 5 5 4 4 5 5 5 5 4 5 3 3 3 4 5 4 5 5 5 4 3 1 1 2 1 3 1 1 2 2 2 2 2 1 2 2 2 3 3 3 3 4 4 4 5 4 5 6 7 7 7 7 7 6 7 8 7 7 5 6 7
1 5 4 3 1 1 3 1 4 2 3 4 6 6 3 1 5 4 4 1 7 5 5 3 3 7 8 7 7 7 8 8 7 7 7 6 5 4 4 4 4 5 4 4 4 4 3 3 3 3 4 5 3 3 3 3 4 4 3 3 4 2 1 3 2 2 2 2 2 3 2 0 0 1 1 2 2 3 4 4 4 5 5 5 5 6 7 7 7 7 7 7 7 7 7 6 6
2 4 7 6 3 4 1 2 6 6 3 2 4 1 2 3 5 10 7 5 6 4 5 3 4 5 5 3 4 6 7 6 7 7 7 6 6 5 5 4 4 4 4 2 3 3 3 2 3 4 4 4 5 3 4 4 4 4 3 3 2 2 2 3 5 3 5 4 4 2 4 4 3 4 4 4 2 2 3 3 3 4 5 5 5 5 5 6 7 8 7 6 7 8 7 8 8
4 6 7 5 5 4 1 1 2 1 2 0 1 4 2 3 5 6 6 8 8 5 9 11 9 8 8 5 7 4 8 9 7 7 7 7 6 6 4 4 4 4 3 2 3 3 4 4 5 5 4 5 4 3 3 6 5 5 5 5 4 4 2 1 1 0 3 4 3 5 4 5 5 5 5 4 4 4 4 5 5 5 5 5 5 6 5 6 7 7 6 7 8 8 8 9 8
4 2 8 7 5 5 3 2 4 4 1 4 2 2 2 1 6 3 6 8 7 6 9 8 9 9 10 11 8 3 8 8 8 8 8 6 6 4 4 4 4 3 2 3 4 4 5 6 6 6 5 5 3 3 5 4 6 5 6 5 5 4 3 2 3 3 2 2 5 6 5 6 5 5 6 7 7 7 7 6 6 5 6 6 6 6 6 6 7 7 7 8 8 8 7 8 10
3 4 10 9 10 9 6 5 4 2 1 7 4 0 1 2 5 1 10 9 5 11 11 11 9 10 12 12 12 5 7 9 9 9 9 8 7 7 6 6 5 4 3 4 4 4 5 6 7 6 6 6 4 5 6 6 6 6 5 4 5 3 3 3 1 2 4 5 6 6 7 7 8 8 8 8 8 8 9 8 8 8 8 8 7 7 7 7 9 9 9 7 8 8 7 8 8
3 4 3 4 3 2 4 5 3 0 2 5 2 2 1 4 2 4 7 9 10 12 14 14 13 14 14 12 15 12 8 8 8 9 9 8 6 6 7 7 6 5 3 3 3 4 5 6 8 8 6 5 5 7 8 8 8 6 6 6 6 5 5 5 5 6 5 4 6 6 7 8 8 8 8 8 8 9 8 8 8 9 9 8 7 7 8 8 8 8 8 8 9 9 7 8 9
4 6 5 3 4 2 2 5 3 3 1 7 6 6 4 3 5 9 11 13 14 12 8 7 9 11 12 11 12 11 10 10 9 10 10 7 6 7 6 8 8 6 4 4 3 4 5 7 8 9 5 5 6 7 9 8 7 6 6 6 7 7 6 6 7 7 6 7 7 7 7 7 8 8 8 8 6 8 7 8 8 8 7 7 7 7 7 7 7 8 8 9 9 10 8 9 8
8 2 4 0 3 4 2 1 2 2 4 5 4 7 5 5 2 4 7 4 13 14 14 14 15 17 14 12 11 10 10 10 11 11 11 9 9 7 6 8 8 7 6 5 3 3 5 6 9 10 6 6 6 6 9 8 7 6 6 6 7 6 6 5 6 6 6 7 7 8 7 7 8 7 7 7 8 8 8 8 8 7 7 7 7 7 7 7 7 7 7 7 6 7 7 8 8
5 7 7 9 2 1 3 1 2 4 5 1 1 4 2 6 7 4 9 6 11 13 14 18 19 15 15 12 12 11 9 11 11 10 10 9 8 8 7 6 7 6 7 5 4 3 4 6 7 10 7 6 6 6 8 7 7 7 6 7 6 5 6 6 5 5 6 7 8 8 8 7 7 7 7 7 7 9 8 8 8 7 7 7 8 8 8 8 7 7 7 7 7 7 7 8 8
7 7 6 8 4 3 5 2 0 2 5 3 2 1 1 3 6 3 7 7 5 10 6 5 7 8 10 12 12 10 9 11 9 9 9 8 7 7 6 6 5 5 6 6 4 4 4 6 6 8 7 5 5 6 6 8 8 6 6 6 6 5 6 5 5 6 6 6 6 6 6 6 6 6 7 8 8 8 7 8 7 7 7 7 8 8 8 8 8 8 8 8 8 7 7 8 8
6 4 7 7 5 4 4 3 5 5 6 2 4 3 4 2 3 3 4 3 1 8 8 7 10 10 9 11 11 9 9 11 9 8 9 8 7 8 6 5 5 5 6 6 5 5 5 6 6 7 6 5 6 6 7 8 7 7 6 6 6 5 5 5 5 5 5 5 4 5 6 5 6 6 6 7 7 7 8 7 7 7 8 8 9 9 8 8 8 7 6 7 7 6 6 7 7
1 4 7 4 8 5 1 4 5 4 2 0 1 2 0 2 4 4 1 3 4 10 11 11 10 10 10 11 14 10 8 12 10 9 10 9 8 8 6 5 5 5 4 4 5 5 6 6 6 6 6 6 7 8 8 7 6 6 7 7 6 5 5 5 6 5 5 4 5 5 6 6 6 7 5 6 7 7 8 9 8 9 9 9 9 9 9 9 10 9 7 7 8 6 7 7 6
4 6 10 6 4 4 3 1 1 2 4 1 0 3 3 1 2 3 6 8 7 9 11 11 9 10 11 9 12 10 7 11 11 9 10 10 8 7 7 5 5 5 5 4 5 5 4 5 6 6 7 7 8 7 6 5 6 8 7 7 7 8 8 7 6 7 6 6 5 5 6 6 6 6 6 7 7 8 8 7 8 8 9 8 9 9 9 9 10 9 8 8 8 7 6 7 6
6 5 6 3 3 4 3 3 1 2 4 2 1 3 2 2 3 5 8 10 10 12 14 13 10 9 10 6 2 11 8 10 10 9 10 11 9 9 8 6 5 5 5 5 6 5 4 4 5 7 7 8 6 7 6 5 7 8 7 8 8 8 6 6 6 6 5 5 6 6 6 6 7 7 7 6 7 8 7 8 8 8 9 9 9 9 9 9 10 9 8 7 7 7 6 5 5
10 7 6 9 5 7 2 2 1 1 0 1 3 3 2 4 2 7 11 13 14 13 11 13 12 10 10 12 4 10 9 13 10 11 9 11 9 7 9 9 7 6 6 5 5 6 6 5 6 7 7 6 6 6 6 7 8 6 6 7 7 7 6 5 6 6 5 6 7 6 6 6 7 8 7 8 7 7 8 8 8 8 9 9 9 8 8 8 9 9 9 8 7 7 6 5 6
2 5 9 2 6 2 4 6 4 5 2 2 2 2 4 4 4 11 13 13 14 15 15 17 16 12 12 12 9 12 9 12 11 11 10 10 11 8 7 8 8 7 7 7 7 6 9 7 7 7 6 7 8 8 7 8 7 7 6 6 6 6 6 6 7 6 5 6 6 6 7 7 8 6 8 7 7 8 9 9 8 8 9 9 10 9 9 9 8 8 8 8 8 8 8 7 7
4 5 6 2 0 2 5 1 2 3 6 5 4 1 6 8 5 8 12 12 16 19 18 14 13 13 13 12 9 11 12 10 11 10 12 12 11 8 7 7 6 5 5 7 7 7 6 6 7 7 7 7 8 6 6 7 6 6 6 8 7 7 7 5 5 5 5 7 6 6 6 6 6 8 7 7 8 9 9 9 8 9 9 9 9 10 8 8 7 8 8 8 8 8 8 7 6
7 8 7 7 6 4 8 6 3 3 5 4 5 3 7 8 2 4 8 9 10 10 10 9 11 13 14 12 11 9 13 11 12 9 11 14 11 9 7 7 7 7 8 8 6 6 7 7 6 7 7 5 6 5 6 6 6 6 7 6 6 5 5 5 6 6 7 6 7 7 7 7 7 7 7 8 9 8 8 9 8 10 10 9 9 9 9 7 8 9 10 8 9 9 10 10 9
Wind_Direction
342 341 319 335 37 81 53 0 327 308 72 245 299 312 270 192 234 343 300 330 357 275 283 358 20 6 189 195 139 119 34 150 196 139 213 240 113 125 122 125 127 135 141 139 142 138 140 130 126 124 124 124 123 123 127 127 124 125 125 125 122 121 121 121 121 120 119 118 117 116 115 113 111 109 106 105 104 103 99 97 95 96 98 99 100 99 91 89 94 95 96 98 97 90 92 94 89
355 335 8 357 342 39 339 104 99 356 36 66 240 56 255 291 42 212 278 311 215 186 229 97 77 76 71 97 123 128 40 14 201 235 78 97 96 96 131 131 136 139 140 139 139 134 134 134 129 127 126 126 125 126 127 126 123 124 125 124 122 121 120 120 120 119 117 117 115 114 112 111 110 107 105 104 100 96 95 96 97 96 96 97 97 97 92 87 93 96 100 102 100 94 87 81 75
344 359 5 22 27 67 100 29 261 178 155 219 263 218 303 308 247 211 265 213 190 188 206 127 132 89 77 69 50 33 221 102 109 140 106 132 128 154 142 139 139 139 140 138 134 131 132 135 132 129 127 127 126 126 125 125 124 125 124 123 124 122 119 119 117 115 115 114 114 114 113 112 109 107 104 101 99 98 99 98 98 97 96 95 95 94 93 85 84 98 107 109 104 96 89 83 76
48 41 114 60 164 24 66 32 112 140 182 202 259 278 242 242 258 181 231 197 181 152 300 12 50 299 113 56 125 53 77 130 143 137 138 169 161 137 138 133 127 130 131 138 136 130 135 140 134 129 129 129 126 124 123 124 124 124 124 125 124 119 118 116 117 116 116 115 114 113 114 112 109 108 102 100 99 99 99 99 99 100 96 93 91 92 93 89 88 95 108 113 109 100 87 78 74
52 322 87 93 113 337 117 193 157 140 208 179 205 243 243 240 253 163 243 197 179 358 35 74 72 341 73 120 173 117 228 83 142 123 109 75 114 135 131 127 129 131 131 134 132 133 145 139 134 130 130 128 125 122 120 124 125 125 125 126 124 120 118 116 116 117 116 115 113 114 114 111 110 104 102 97 91 88 89 89 91 91 92 93 94 92 89 87 86 94 111 113 109 102 84 75 70
52 38 352 92 205 178 60 91 217 199 211 174 201 226 238 241 222 200 263 210 256 84 162 75 145 214 22 350 71 101 139 141 145 70 153 130 132 131 128 126 126 128 127 121 132 137 138 141 136 132 128 126 123 121 123 125 127 127 126 125 125 122 117 113 113 115 115 116 116 116 115 110 106 103 97 90 90 90 90 91 93 94 96 98 98 99 97 92 96 99 115 114 107 96 84 77 69
294 39 351 32 18 56 183 170 204 203 258 173 211 222 229 152 172 76 39 112 278 60 29 120 122 109 72 298 41 64 331 163 137 171 119 127 122 126 128 126 125 123 120 120 124 131 137 139 134 129 125 122 121 123 124 125 127 130 129 128 129 126 122 116 111 117 117 118 118 117 114 108 103 100 95 96 94 93 94 95 95 98 102 108 105 96 94 91 87 94 105 108 107 97 89 82 74
62 126 289 112 197 59 227 199 232 164 268 182 230 234 96 143 71 32 309 109 309 93 58 115 85 97 245 356 175 285 14 348 111 99 110 123 126 125 126 127 123 118 118 115 122 130 140 132 130 126 123 122 123 125 127 128 128 132 134 132 130 130 126 121 115 107 117 122 121 116 110 109 105 101 101 99 94 91 92 93 94 88 87 81 78 83 89 95 95 98 109 112 102 98 94 87 80
353 85 291 82 165 36 54 220 243 238 284 299 275 257 14 168 167 145 341 263 2 125 144 126 140 92 225 59 18 316 3 11 95 111 120 124 127 126 120 123 124 117 118 122 126 129 125 134 129 126 125 124 125 128 130 131 133 138 139 137 134 131 125 122 120 116 117 118 119 118 116 110 101 99 97 92 92 94 95 93 90 85 85 87 89 92 94 93 96 98 95 97 99 96 93 88 82
27 87 247 151 122 209 329 284 159 228 218 240 250 269 93 310 304 191 211 308 230 132 155 94 89 118 145 129 84 316 287 97 109 109 121 125 118 110 111 115 121 124 122 125 124 122 132 135 127 126 128 127 129 133 133 135 139 142 143 141 134 128 124 115 115 118 112 114 116 117 111 102 103 105 97 96 98 98 98 101 98 93 93 93 92 89 88 91 94 98 97 94 96 96 93 89 80
191 12 150 103 78 195 210 259 261 294 256 289 282 249 224 234 217 238 187 228 182 152 123 121 51 126 123 117 178 312 97 130 118 125 120 114 110 112 111 114 121 127 131 127 128 132 135 135 135 133 131 130 131 131 136 141 143 143 141 133 130 131 123 112 122 115 118 122 119 117 111 107 106 103 101 95 91 93 93 92 93 90 80 77 74 74 77 81 87 91 93 92 90 88 88 87 82
49 100 42 122 191 172 234 215 249 267 295 302 271 236 219 215 173 191 226 213 176 142 168 171 173 136 102 136 276 269 114 114 114 116 114 106 109 106 111 115 123 126 127 129 130 130 134 136 138 135 134 131 132 137 141 144 144 141 138 133 130 131 125 120 120 121 121 118 117 117 115 108 104 98 97 100 100 96 95 93 88 84 80 78 74 71 72 77 84 90 93 94 91 89 87 87 88
122 104 88 98 224 158 202 279 260 277 317 257 244 273 190 210 198 203 190 197 180 143 234 208 140 148 126 162 131 159 157 128 121 115 107 109 109 103 114 119 122 126 129 129 129 136 132 130 129 130 135 136 137 141 144 144 137 131 130 129 131 125 123 129 122 116 118 116 119 118 115 112 105 100 97 100 99 94 91 92 92 87 80 76 71 70 67 66 70 74 81 83 79 83 87 88 83
119 176 131 210 59 157 153 223 331 358 278 267 220 250 179 204 225 204 157 187 176 177 204 149 146 133 88 113 157 212 177 128 129 113 111 108 108 119 122 122 126 129 131 133 136 134 131 126 124 129 131 129 138 143 146 142 136 130 126 131 127 116 121 122 117 110 118 118 119 117 116 115 106 103 101 97 98 101 101 96 91 85 80 75 74 66 63 59 58 62 60 60 60 65 70 71 70
173 149 85 118 189 64 243 182 216 194 263 255 257 9 327 260 256 155 168 176 208 89 102 117 159 136 195 165 188 204 157 136 125 117 112 110 122 129 126 118 124 131 132 137 130 128 126 122 122 118 120 123 125 130 130 142 135 135 130 127 121 119 113 110 116 121 124 126 124 120 125 120 120 112 106 102 102 108 108 105 103 95 81 68 63 65 58 52 55 53 49 42 43 48 54 61 66
154 85 88 159 240 172 261 188 159 114 258 229 246 28 289 279 152 164 218 166 148 162 134 170 233 188 164 177 186 165 130 131 127 120 119 123 123 123 127 128 134 134 138 134 128 121 123 122 122 120 120 123 120 102 104 124 142 138 132 126 126 126 116 109 114 124 128 128 125 110 87 95 103 110 112 110 115 113 112 116 114 110 98 79 58 54 43 45 45 48 45 36 36 40 51 58 65
65 81 101 71 243 162 251 174 150 230 248 273 278 15 5 296 357 141 258 130 131 153 68 7 210 33 157 188 152 122 125 125 124 124 127 134 136 137 140 143 144 139 137 136 134 129 130 127 126 120 120 115 108 97 91 108 138 136 135 137 136 133 121 114 116 116 107 114 101 88 84 73 63 58 64 59 97 113 137 125 121 117 112 103 72 24 37 29 33 37 36 32 30 38 53 51 52
69 160 125 242 202 180 212 187 188 212 284 296 320 338 317 321 30 24 57 62 106 91 86 72 44 50 97 91 106 114 123 126 127 137 139 140 145 146 147 151 152 153 149 144 139 132 136 134 131 125 117 114 104 95 99 102 112 106 101 117 133 137 130 126 111 104 95 75 87 83 76 88 72 64 37 61 60 64 41 124 112 120 118 99 62 30 7 11 10 21 24 27 31 33 55 53 32
133 127 125 228 182 239 167 195 222 329 285 286 293 320 269 272 138 186 97 131 123 103 87 87 100 97 96 100 111 117 124 129 136 144 145 144 147 147 147 143 149 144 146 142 139 140 136 130 130 133 121 112 102 100 100 90 95 92 89 112 127 137 132 113 104 101 93 99 98 92 90 75 87 75 61 254 191 190 45 331 290 10 126 85 27 353 351 349 358 358 3 17 30 31 63 67 58
223 126 219 236 201 244 209 230 273 227 261 290 321 312 1 279 70 85 123 151 137 143 138 129 138 132 127 125 119 123 129 132 139 150 152 151 149 148 149 150 149 154 148 144 134 123 124 131 131 126 123 108 105 103 99 103 100 104 114 103 100 96 99 110 112 116 104 106 113 103 77 96 74 60 309 315 4 45 31 358 326 322 340 358 355 26 9 3 355 355 356 360 11 9 52 76 85
258 148 206 236 214 222 261 203 234 256 250 271 284 304 46 312 97 91 142 109 277 266 194 160 162 148 142 137 131 131 137 138 144 156 154 153 150 130 146 139 143 140 120 120 123 130 123 127 128 128 115 105 106 115 117 103 111 115 115 113 106 92 102 98 102 101 106 102 104 101 65 80 15 27 350 330 349 14 17 354 329 346 4 1 3 349 6 2 354 346 345 358 350 350 360 94 111
110 219 192 223 262 220 247 234 246 242 250 238 290 346 299 325 76 118 168 183 194 205 207 195 150 143 145 145 139 136 134 142 152 156 158 156 156 151 145 134 108 92 109 130 136 132 133 126 126 125 117 113 121 113 120 129 132 127 115 133 111 105 111 113 104 104 100 100 94 94 102 46 24 352 52 23 330 333 275 244 266 293 341 280 290 303 312 335 316 320 331 330 326 319 315 338 160
233 304 252 234 240 248 212 230 215 163 289 284 311 275 353 114 223 163 153 271 265 180 116 121 130 131 138 133 142 140 139 145 155 160 159 157 156 152 144 142 146 141 151 150 133 133 130 131 131 127 131 123 123 124 116 122 142 126 117 127 125 131 134 129 139 101 106 112 115 148 129 138 346 348 353 345 9 188 245 243 243 234 245 258 255 250 291 283 269 285 286 273 282 296 299 284 172
192 250 277 288 231 236 241 261 258 271 272 268 236 331 296 159 135 239 73 304 285 89 106 116 122 126 131 135 133 127 128 136 158 167 168 160 154 152 150 152 158 145 155 144 136 141 143 142 140 142 133 133 130 136 128 152 140 141 151 165 150 169 152 153 145 130 135 159 177 184 151 164 203 340 324 330 308 337 277 277 230 232 239 252 260 246 283 289 292 280 267 256 256 261 276 286 224
213 262 254 262 266 238 249 257 285 270 263 259 269 281 266 193 160 83 26 42 74 92 108 119 124 127 124 123 129 131 138 153 165 160 143 141 138 133 137 149 156 153 160 162 163 148 145 141 139 140 138 135 123 137 151 161 131 134 179 150 154 191 132 142 133 124 138 176 191 187 164 179 185 201 242 238 218 274 297 294 291 271 243 255 205 257 244 277 289 284 281 286 271 268 264 280 286
211 222 234 260 267 289 276 295 262 261 264 200 273 341 25 131 118 57 125 115 110 114 117 130 133 132 129 132 134 150 158 163 155 148 140 134 139 146 154 159 153 164 165 164 168 162 134 132 134 134 132 130 134 148 157 163 143 153 174 171 164 176 123 118 132 135 139 159 175 177 182 176 201 218 245 272 206 283 280 285 276 276 293 289 216 267 246 253 276 291 291 291 294 288 290 283 300
170 222 239 257 262 277 297 206 288 207 218 190 191 167 169 305 86 239 142 131 126 122 123 130 135 133 134 141 161 167 149 116 96 102 118 145 154 157 160 155 162 164 158 162 158 140 139 135 130 133 135 146 145 155 159 157 164 175 169 152 147 125 131 127 125 152 160 178 188 181 184 220 212 228 261 304 322 305 294 274 265 279 283 273 215 276 329 312 302 285 311 318 316 312 299 310 301
215 206 309 283 286 269 245 308 274 137 292 190 165 163 259 314 68 170 145 136 136 129 128 132 133 133 144 155 163 126 107 128 145 151 155 160 160 163 168 170 165 158 163 164 148 134 141 136 132 129 138 145 151 149 154 163 174 168 147 127 151 148 143 152 165 165 202 193 192 177 198 242 260 270 249 317 296 292 291 278 258 256 254 275 285 258 274 281 271 275 282 308 298 301 294 293 282
268 86 310 301 344 340 259 200 259 154 250 135 151 82 345 1 304 166 140 137 137 136 133 136 138 140 140 155 156 121 140 152 157 161 166 163 161 163 170 167 158 155 145 138 131 142 148 137 133 137 141 149 152 159 170 170 152 137 119 123 151 149 153 155 168 177 174 173 152 140 193 218 231 242 253 244 271 269 286 292 285 266 257 235 229 273 272 266 274 277 272 239 258 280 292 287 272
316 52 120 341 356 335 277 150 130 152 241 151 153 104 269 291 256 144 148 137 138 134 137 142 144 135 149 163 154 114 123 136 145 139 151 154 154 156 160 156 156 152 148 129 131 154 136 134 141 144 149 151 162 166 157 146 131 118 116 131 141 139 158 156 173 159 167 117 156 210 225 235 244 244 256 278 268 288 292 293 299 300 306 316 255 239 246 241 260 279 271 281 274 267 268 274 285
188 256 68 107 12 273 284 110 148 153 218 184 96 168 281 263 253 152 156 153 144 146 148 149 142 149 165 173 153 122 148 151 132 132 141 144 139 137 139 151 154 147 143 140 157 160 158 153 155 148 152 152 160 158 145 133 125 128 129 133 144 162 164 167 151 120 99 303 249 257 235 239 256 286 307 291 288 267 292 296 295 296 308 315 306 287 264 252 225 246 274 273 275 266 261 270 260
352 69 276 328 148 274 297 192 166 139 323 254 88 122 220 271 178 159 159 158 149 146 156 156 147 155 164 169 168 127 151 135 111 124 133 138 142 141 148 159 150 147 157 158 156 153 162 153 154 139 142 151 143 140 122 125 130 123 124 142 134 160 168 189 184 172 178 204 226 246 244 245 262 263 251 242 261 269 285 292 296 308 316 319 313 302 281 271 256 242 246 242 263 264 258 261 235
352 141 279 273 131 262 343 285 101 66 119 347 160 194 33 93 194 168 161 162 158 147 153 148 148 160 160 164 145 132 140 121 108 113 125 136 143 146 152 152 154 159 162 166 161 153 154 161 162 142 146 141 120 110 112 106 107 108 116 126 146 159 182 246 274 84 236 235 231 240 251 261 247 237 236 236 246 271 276 282 289 298 305 304 302 301 294 274 262 256 244 235 233 262 266 265 243
274 9 184 205 182 260 247 300 60 112 102 151 19 118 210 201 172 170 136 36 132 156 156 152 157 171 174 135 149 150 145 133 127 123 117 119 132 138 138 152 150 160 167 168 161 162 159 160 138 136 114 119 115 118 120 111 102 102 98 101 134 150 210 279 50 229 251 249 244 254 252 241 230 219 219 213 230 250 259 262 278 280 279 280 276 279 289 287 261 252 256 233 230 237 253 254 259
199 197 124 285 310 177 245 340 283 31 65 117 29 82 195 178 165 162 129 164 174 182 175 162 157 164 158 132 150 154 147 139 129 122 114 114 103 100 123 136 144 151 156 152 144 142 134 134 127 148 123 118 117 122 116 107 102 89 74 87 88 192 296 204 209 231 246 251 251 254 251 238 234 222 217 211 230 242 251 256 263 265 258 256 256 254 275 280 269 243 248 249 229 226 232 238 249
190 167 165 152 135 219 219 249 276 80 80 104 141 153 176 156 168 156 135 178 160 90 30 318 149 150 134 151 155 158 157 129 120 111 107 98 96 106 117 120 119 119 127 144 139 141 136 133 132 128 133 132 131 119 114 107 97 98 120 13 1 289 262 245 226 234 229 238 249 247 237 231 226 225 218 216 223 236 243 252 257 262 260 260 261 256 257 256 261 260 246 246 250 243 236 241 237
112 99 107 142 159 286 284 273 269 328 49 146 166 156 160 169 171 159 162 139 107 107 141 249 278 163 157 164 163 162 147 123 117 112 109 109 105 105 105 110 112 111 114 127 127 133 136 142 143 144 141 145 140 137 129 134 123 101 73 203 237 240 236 230 254 265 246 241 243 241 240 236 225 226 221 212 218 235 238 243 244 246 244 249 247 247 247 251 250 248 247 235 242 247 239 223 236
134 117 112 310 120 253 238 37 322 319 142 313 110 130 177 175 175 149 132 138 164 169 185 170 263 229 168 165 168 158 125 104 105 102 103 102 104 106 105 116 131 127 123 124 132 137 134 143 155 147 144 157 163 160 145 132 149 169 165 196 190 218 212 226 299 330 240 257 244 245 249 251 240 234 246 210 238 227 248 254 254 257 250 247 248 251 251 247 245 242 243 253 225 244 247 199 216
99 165 153 87 277 260 291 274 328 314 68 285 323 131 197 192 166 148 160 179 191 188 181 175 169 251 190 172 164 141 126 122 99 101 103 110 108 99 99 93 101 105 107 110 123 129 142 152 149 153 161 158 160 152 147 158 176 177 158 195 166 242 246 178 195 251 307 288 276 259 267 280 267 266 253 241 235 237 238 245 245 246 254 258 263 260 256 253 243 241 233 243 260 223 234 200 189
136 96 122 210 245 137 279 314 350 329 78 213 204 123 305 354 39 159 184 186 59 39 12 91 103 181 229 183 148 139 134 128 125 122 116 119 107 104 94 90 112 112 106 94 94 109 123 130 149 161 162 160 163 179 174 171 163 149 53 52 41 68 339 342 16 353 15 8 347 322 299 273 240 236 229 230 234 236 232 240 248 248 253 252 258 267 266 262 247 245 241 238 233 252 233 226 194
269 162 157 189 158 248 150 243 308 329 4 92 87 39 350 100 161 143 35 63 91 46 45 21 101 45 5 350 103 132 135 131 122 115 122 124 114 100 101 114 116 113 103 110 114 107 120 130 140 161 167 163 160 148 123 114 96 73 47 38 37 29 359 8 29 7 23 357 43 15 23 141 254 274 233 220 238 255 244 237 238 248 250 251 253 266 278 278 281 267 253 243 234 243 248 242 221
222 239 188 188 174 202 310 353 32 18 359 299 113 38 282 276 221 183 142 115 105 114 123 127 86 69 140 315 332 112 113 112 119 125 134 124 113 95 95 103 100 105 100 106 121 122 114 86 65 72 83 84 101 110 132 119 112 118 102 99 62 28 360 9 23 353 340 5 358 311 356 28 21 11 9 0 333 310 306 297 289 290 284 277 264 265 272 280 282 284 274 268 260 244 246 253 261
143 254 184 166 160 169 132 340 60 22 145 313 54 169 253 325 213 204 147 160 132 151 186 184 173 173 171 137 269 155 130 126 122 126 129 119 115 109 103 99 102 106 110 123 90 82 69 57 64 83 86 90 100 109 119 116 102 105 110 110 113 105 91 304 267 318 15 348 343 19 3 6 28 24 11 9 3 356 351 343 332 314 295 286 277 271 261 271 278 276 271 264 268 263 252 245 246
213 239 151 151 149 159 181 145 145 218 260 304 19 126 168 276 257 174 152 152 142 167 222 193 184 170 187 171 174 229 143 138 136 136 127 105 103 109 118 102 92 75 73 71 65 67 72 72 79 82 78 80 76 109 85 90 110 111 98 93 94 96 105 82 13 8 22 3 23 16 6 12 11 20 11 9 8 4 358 353 339 318 315 308 303 292 286 279 273 271 268 269 272 272 267 258 257
216 188 148 164 178 195 183 163 183 206 63 287 320 149 57 254 275 165 141 159 171 191 206 209 183 183 190 170 135 201 155 145 142 143 131 128 129 133 128 114 91 70 52 63 82 84 81 87 88 83 77 79 71 76 81 70 77 78 84 95 84 65 74 52 9 46 36 18 30 9 12 2 8 8 14 9 5 0 356 346 340 339 337 333 326 316 301 285 274 273 273 270 273 273 260 263 267
268 150 91 112 81 73 145 153 141 301 97 261 256 197 140 281 286 115 155 182 191 200 206 208 190 189 190 171 155 173 152 144 147 135 127 134 136 130 125 112 87 67 53 73 82 90 92 98 93 85 77 81 86 74 75 67 64 67 68 64 67 43 30 25 36 27 17 15 30 15 11 10 4 4 4 4 358 357 345 344 342 343 346 337 330 314 301 293 287 281 275 269 265 261 257 259 261
142 142 126 71 49 57 40 73 112 68 242 247 212 224 155 273 240 173 159 206 194 196 202 201 191 189 179 167 157 155 154 148 151 139 138 141 135 127 130 123 114 96 82 70 81 102 108 100 98 86 81 77 70 73 74 69 64 58 67 62 61 49 34 35 25 16 9 21 21 14 16 7 9 360 355 351 357 346 344 346 347 345 330 315 296 293 289 285 286 283 277 272 270 267 260 260 258
124 139 126 66 305 20 39 346 49 171 266 261 237 201 168 189 288 228 223 169 187 184 189 187 182 183 168 160 153 152 151 145 140 137 138 140 133 129 135 126 119 116 107 98 90 103 104 105 100 93 75 71 68 69 70 64 62 55 53 52 53 48 47 41 34 21 15 28 21 22 14 8 6 358 351 353 354 346 348 344 341 325 313 304 304 297 294 292 290 288 287 283 282 277 277 274 266
110 92 96 150 259 82 273 137 245 200 195 242 112 149 67 236 218 233 206 193 184 193 193 188 181 170 164 154 150 151 147 138 134 124 133 146 147 145 145 130 123 127 121 114 102 91 85 86 93 96 83 72 68 68 73 71 66 57 49 50 46 42 44 41 35 33 27 35 27 24 15 11 358 0 350 350 345 349 341 335 336 330 326 318 315 312 309 303 296 290 290 291 286 280 274 270 263
148 160 139 130 152 168 211 269 228 316 288 242 33 296 247 256 295 220 219 215 223 188 165 158 163 159 151 149 147 146 152 133 130 131 141 151 149 137 135 133 126 120 114 109 99 83 76 79 75 84 85 77 84 77 76 71 62 57 53 53 46 41 43 43 39 43 40 46 36 28 18 4 346 349 346 343 341 341 340 334 328 328 319 317 320 319 319 317 309 303 296 295 295 291 283 274 270
182 109 143 169 134 160 210 190 185 205 204 281 294 134 234 118 230 320 305 279 238 114 107 116 137 146 142 140 136 128 145 125 131 134 139 141 137 130 129 122 117 115 118 111 108 99 89 83 83 83 81 71 71 67 66 65 60 52 52 52 46 45 48 48 51 51 45 41 37 32 6 350 346 333 355 340 341 342 340 335 333 327 328 330 329 329 327 325 319 309 303 295 291 282 280 261 260
207 153 78 119 216 131 141 207 154 199 161 9 6 176 237 206 293 309 140 128 129 121 115 116 140 142 142 146 144 141 147 135 136 137 128 123 119 116 115 114 104 95 92 97 94 92 96 96 93 89 88 76 69 65 60 66 65 61 54 49 39 48 50 51 46 37 28 31 32 25 8 356 351 343 346 352 353 347 344 339 341 343 341 340 337 333 332 338 338 333 326 326 324 320 315 306 295
222 119 193 200 144 105 79 72 31 84 58 274 45 305 246 270 296 95 136 125 134 127 129 133 152 146 145 144 141 129 140 128 136 138 128 122 119 112 104 89 87 89 81 76 78 81 86 92 94 90 77 68 64 64 67 70 70 62 50 46 42 42 36 34 34 32 22 24 22 25 20 359 354 359 359 1 354 347 346 342 342 343 344 341 340 339 339 341 339 336 336 336 337 328 323 317 307
109 182 227 113 90 103 137 224 353 59 160 231 49 201 223 95 298 162 147 143 148 148 146 144 154 146 143 113 74 126 141 110 111 117 126 128 128 122 106 92 86 90 95 93 97 94 87 85 90 83 70 71 64 66 63 58 62 57 46 44 44 42 35 33 32 32 24 31 27 20 24 3 7 3 1 356 351 346 346 348 345 347 345 345 345 343 345 342 339 337 337 335 334 327 325 320 316
156 181 192 148 224 232 306 91 260 124 171 246 323 236 233 194 244 172 173 166 162 157 146 141 153 148 123 128 183 126 132 116 120 120 125 127 126 136 129 123 110 97 100 101 88 90 83 65 59 63 68 68 71 68 61 56 55 58 52 46 43 37 31 29 33 30 27 34 28 20 18 8 11 8 0 359 350 354 355 351 353 350 353 352 348 346 345 347 340 342 342 336 339 338 335 324 324
48 98 174 187 107 141 125 200 174 112 196 91 289 314 255 219 220 197 188 174 159 155 154 161 162 151 140 143 153 133 129 127 132 127 124 118 119 122 120 115 119 125 121 107 90 76 66 58 65 69 64 59 57 48 52 58 49 53 57 55 50 48 33 32 27 23 32 35 24 20 13 18 14 7 8 356 3 4 360 355 355 357 357 354 352 347 351 346 343 346 341 339 343 349 345 340 337
134 156 185 200 65 224 110 48 123 164 163 170 143 258 263 247 208 186 194 179 171 168 163 158 152 144 136 135 138 134 126 125 127 132 130 126 125 123 121 116 106 104 108 99 90 78 75 73 71 59 63 60 58 49 52 58 56 56 57 52 41 36 27 28 32 23 40 33 23 19 19 18 12 20 1 4 11 6 0 354 357 358 356 355 349 349 344 342 342 340 340 341 343 352 357 354 343
173 164 192 159 115 127 162 234 31 87 105 190 122 227 264 269 304 224 179 180 163 162 149 138 135 138 135 134 131 141 127 125 124 135 136 127 118 122 128 120 123 125 108 94 83 91 83 77 74 68 63 44 72 58 61 62 60 56 56 56 53 35 30 31 39 29 37 30 27 22 17 12 16 8 6 12 14 10 358 358 358 360 2 359 357 348 347 344 355 346 359 3 7 7 11 8 4